Kansas NPI Finder Family Medicine

Results:: 1-50


The following NPI(s) contains information matching your search criteria. Please select the NPI number to view the data associated with the record.

NPIName NPI TypePrimary Practice AddressPhonePrimary Taxonomy
1003011529JOHN CHRISTIAN BIRKYGARDEN CITY, KS620-765-4324Family Medicine
1003106402FAITH MADELINE BUTLERKANSAS CITY, KS913-588-1908Family Medicine
1003108440COMMUNITY HEALTHCARE SYSTEM, INCCORNING, KS785-857-3334Family Medicine
1003127424JENNIFER BAASWICHITA, KS316-268-5000Family Medicine
1003164872SEK PRIMARY CARE ASSOC, LLCNEODESHA, KS620-325-2500Family Medicine
1003174814ALISA L SCHMIDTWICHITA, KS316-651-2216Family Medicine
1003211269ST ROSE HEALTH CENTER INCGREAT BEND, KS620-792-2511General Practice
1003222563NIDA DILLONLENEXA, KS913-438-6700Family Medicine
1003300856TERESA LYNETTE NUNEZSALINA, KS785-825-7251Family Medicine
1003345471NATALIE FRYESABETHA, KS785-284-2141Family Medicine
1003473554WILLIAM NEWTON MEMORIAL HOSPITALWINFIELD, KS620-221-0110Family Medicine
1003825720ANTONIO LAZARO CARROMULVANE, KS316-777-0176Family Medicine
1003832403PRIMARY CARE ASSOCIATES, LLCWICHITA, KS316-684-2851Family Medicine
1003834276WILLY G PEREIRAWICHITA, KS316-682-1754Family Medicine
1003838335KENDALL MERRITT WRIGHTEMPORIA, KS620-343-2376Family Medicine
1003840547DARREN R MATCHELLCOLBY, KS(785) 462-6184Family Medicine
1003867953GREGORY F LAKINWICHITA, KS316-201-1234Family Medicine
1003870817CARRIE E COHENWICHITA, KS316-858-1111Family Medicine
1003871278W. REESE BAXTERSALINA, KS785-820-9565Family Medicine
1003886714JEROME S SPITZERHUTCHINSON, KS620-663-8484Family Medicine
1003899881MARY K GOOCHFORT RILEY, KS785-240-5592Family Medicine
1003899915WILLIAM S GREINERKANSAS CITY, KS913-299-3700Family Medicine
1003921214AMY J FRICKLEAVENWORTH, KS913-682-5588Family Medicine
1003929001PRAIRIE STAR FAMILY PRACTICE, P.A.PLAINVILLE, KS785-434-2622Family Medicine
1003934712GREGORY C BUHLEROVERLAND PARK, KS913-599-2440Family Medicine
1003993494ROBERT S. NEBLETTWICHITA, KS316-263-7455Family Medicine
1013017821MYRA STROTHERLAWRENCE, KS785-864-9500Family Medicine
1013059245ROGENA KELLY JOHNSONWICHITA, KS316-262-2415Family Medicine
1013133073JASON PAUL BRUNTONSALINA, KS785-452-7742Hospitalist
1013136803STARLET KERNERWICHITA, KS316-252-8900Family Medicine
1013243575DOCTORS CLINIC LLCPHILLIPSBURG, KS785-540-4118Family Medicine
1013264399LA CAMBRA COWICHITA, KS913-424-7000Family Medicine Sleep Medicine
1013321728WHITNEY WALLACE NICHOLSSCOTT CITY, KS620-872-2187Family Medicine
1013327659CIERRA JOHNSONSALINA, KS(785) 827-7261Family Medicine
1013399773ASHLEY HOUSERWICHITA, KS316-293-2665Family Medicine
1013400431MICCA SCHNEIDERWICHITA, KS316-962-3070Family Medicine
1013438654CENTERWELL SENIOR PRIMARY CARE (KS) PAOLATHE, KS913-815-5008Internal Medicine
1013438787TYLER J. STEPHENSONSYRACUSE, KS620-384-7461Family Medicine
1013462662HEARTLAND MEDICAL CLINIC, INC.OSKALOOSA, KS785-841-7297Clinic/Center Federally Qualified Health Center (FQHC)
1013470574LAWSON MONTGOMERYKANSAS CITY, KS913-945-7483Family Medicine
1013539592OLIVIA GEHRINGWICHITA, KS316-293-2665Family Medicine
1013901958CELESTE J RAINSOAKLEY, KS785-672-3261Family Medicine
1013908557JANE E STEWARTKANSAS CITY, KS913-660-1616Family Medicine
1013911858ROBERT S FREELOVESALINA, KS785-452-6780Family Medicine
1013912088COFFEY COUNTY MEDICAL CENTERWAVERLY, KS785-733-2667Family Medicine
1013913961GLENDA M. MAURERNORTON, KS785-877-3351Family Medicine
1013941038SAMER AL-HASHMIHUGOTON, KS620-544-8563Family Medicine
1013944719LINDA M GOODSONWICHITA, KS316-685-2221Family Medicine
1013947779JULIE LYNN SIEFERSPLAINVILLE, KS785-877-3305Family Medicine
1013963255VAN T. TRANMISSION, KS913-261-3300Family Medicine